Temp
64 64 64 64 64 64 63 63 63 63 63 63 63 62 62 62 62 63 64 64 64 64 64 64 63 63 64 64 64 64 63 63 62 63 62 61 61 60 60 60 59 59
64 63 62 62 62 61 62 62 62 63 62 62 62 62 62 61 62 62 63 63 63 63 64 64 63 63 63 63 63 63 62 62 62 62 61 61 61 60 60 60 59 59
61 60 61 60 61 60 61 61 61 61 62 63 63 62 62 62 62 62 63 63 63 62 63 63 63 62 62 62 62 62 61 61 61 61 60 60 60 59 59 59 57 57
59 60 60 60 60 60 60 61 61 61 61 61 62 63 63 62 61 61 62 58 62 61 62 62 62 61 62 62 61 60 60 60 60 59 58 58 57 58 57 57 55 54
58 59 59 59 59 60 60 60 60 60 61 61 60 60 60 59 59 60 60 60 61 61 60 61 61 60 60 60 60 59 58 57 57 57 56 55 55 55 55 54 53 51
56 57 57 58 58 59 59 59 59 58 59 58 59 60 60 58 58 59 59 59 59 59 59 59 59 59 59 59 59 58 57 55 54 55 54 53 52 53 54 53 52 49
56 56 56 56 56 57 58 58 59 59 59 59 56 57 57 57 57 58 58 58 58 57 58 58 58 58 58 58 57 56 56 54 52 53 52 49 48 46 47 48 49 48
53 52 53 53 53 53 53 53 54 55 55 55 55 55 56 56 55 56 55 56 56 57 56 56 57 57 56 56 55 54 54 53 52 52 50 47 47 47 47 48 46 45
50 50 51 51 51 49 49 50 50 50 52 52 52 53 52 53 55 55 55 55 55 54 55 55 55 55 54 55 54 54 51 50 50 51 49 47 47 46 46 45 44 42
47 46 48 47 48 49 49 49 50 50 50 50 52 53 53 52 52 54 54 54 54 53 53 53 53 53 52 53 54 52 51 51 50 49 47 47 46 45 44 44 44 43
44 44 45 45 46 47 48 49 49 49 49 52 52 52 52 52 52 51 52 52 52 52 52 51 52 51 51 51 50 50 50 49 48 48 47 47 46 45 42 44 43 43
45 45 45 45 46 47 47 47 47 47 47 47 48 52 50 49 50 49 49 50 50 51 51 51 50 49 50 51 49 48 48 48 47 46 45 44 44 43 43 44 43 42
44 45 45 45 45 46 46 46 46 45 45 46 45 46 47 47 46 48 47 48 49 49 49 49 48 47 48 47 47 46 46 44 43 43 43 42 42 41 41 42 42 41
45 44 45 46 46 46 46 46 46 44 44 44 43 45 45 45 46 47 46 45 46 46 47 45 45 44 44 44 45 45 44 43 43 42 42 42 42 42 42 42 42 41
45 46 46 45 43 43 43 43 43 42 41 41 41 41 43 43 44 44 43 43 43 43 42 42 43 44 43 43 43 43 43 43 43 42 42 41 41 40 41 41 41 41
44 45 43 42 42 42 41 40 39 39 39 39 40 40 40 40 41 41 40 40 40 40 39 41 42 43 40 41 42 44 43 42 41 40 40 40 40 39 39 40 40 40
44 41 40 40 41 40 39 38 38 37 37 38 38 38 39 38 38 39 38 38 39 39 39 40 42 43 40 43 43 43 42 41 40 40 40 39 40 40 39 39 38 38
41 40 38 38 38 38 37 37 36 36 37 37 37 38 37 37 38 38 38 38 38 38 39 39 40 40 41 42 43 43 41 40 40 40 40 40 40 40 39 38 37 35
40 38 38 37 37 37 36 36 36 36 36 36 37 36 36 37 37 38 38 38 38 38 38 38 38 40 42 42 42 42 42 40 38 38 38 39 40 39 38 36 35 34
39 38 38 38 37 36 36 36 36 36 36 36 36 36 36 36 37 37 37 37 37 37 37 38 39 39 41 41 41 42 42 41 39 40 40 40 39 38 37 36 35 34
39 38 38 38 37 36 36 36 37 37 36 36 36 35 36 35 36 36 37 37 37 38 37 38 39 39 40 41 41 41 42 41 39 39 39 39 39 37 35 35 35 34
39 39 38 38 36 36 35 35 36 36 35 36 36 36 36 36 37 36 36 36 37 37 37 38 38 39 40 40 41 41 42 39 39 39 39 38 38 36 34 34 34 33
39 39 38 38 36 36 35 35 35 35 35 36 36 36 35 36 35 36 36 36 36 36 37 38 37 37 39 39 40 41 40 37 38 37 37 37 38 36 34 33 33 33
39 39 38 36 36 35 35 35 35 35 35 35 35 35 35 35 36 36 36 36 35 36 37 36 37 36 37 39 40 40 38 37 37 37 36 36 36 34 32 31 32 32
39 39 37 36 36 35 35 35 35 35 35 35 35 35 35 35 35 35 35 35 35 35 36 36 36 35 37 38 39 40 38 36 37 36 36 35 35 34 32 32 31 32
38 37 36 36 36 35 35 35 35 35 35 35 35 35 35 34 35 35 35 35 35 35 35 35 36 35 35 38 39 39 39 37 36 36 36 35 34 34 31 28 30 31
MSLP
1014.49 1014.61 1014.73 1014.85 1014.81 1014.81 1014.97 1015.09 1015.09 1015.25 1015.33 1015.49 1015.69 1015.85 1016.05 1016.21 1016.49 1016.69 1016.81 1016.97 1017.09 1017.25 1017.37 1017.57 1017.77 1017.93 1018.01 1018.13 1018.21 1018.37 1018.57 1018.69 1018.89 1019.05 1019.29 1019.53 1019.81 1020.05 1020.33 1020.45 1020.61 1020.73
1014.09 1014.29 1014.49 1014.65 1014.73 1014.73 1014.73 1014.77 1014.89 1014.97 1015.01 1015.05 1015.09 1015.29 1015.45 1015.65 1015.85 1016.09 1016.33 1016.57 1016.77 1016.97 1017.05 1017.17 1017.33 1017.53 1017.69 1017.81 1017.89 1018.13 1018.29 1018.49 1018.65 1018.77 1019.01 1019.21 1019.45 1019.73 1019.89 1020.05 1020.25 1020.45
1014.13 1014.29 1014.41 1014.53 1014.61 1014.69 1014.69 1014.69 1014.77 1014.77 1014.77 1014.73 1014.81 1014.93 1015.05 1015.21 1015.45 1015.65 1015.85 1016.13 1016.41 1016.65 1016.85 1016.93 1017.05 1017.25 1017.41 1017.53 1017.65 1017.81 1018.01 1018.17 1018.33 1018.45 1018.65 1018.93 1019.21 1019.41 1019.53 1019.77 1020.01 1020.21
1014.01 1014.05 1014.17 1014.29 1014.37 1014.45 1014.49 1014.61 1014.57 1014.57 1014.61 1014.65 1014.61 1014.65 1014.85 1015.05 1015.17 1015.37 1015.53 1015.81 1016.09 1016.33 1016.53 1016.73 1016.81 1016.97 1017.09 1017.25 1017.45 1017.57 1017.69 1017.85 1017.97 1018.21 1018.49 1018.73 1018.97 1019.17 1019.41 1019.53 1019.77 1020.13
1013.85 1013.93 1013.97 1014.01 1014.09 1014.21 1014.29 1014.37 1014.41 1014.45 1014.53 1014.53 1014.65 1014.69 1014.81 1014.93 1015.01 1015.13 1015.29 1015.53 1015.77 1016.05 1016.25 1016.41 1016.57 1016.73 1016.85 1016.97 1017.13 1017.33 1017.49 1017.73 1017.93 1018.13 1018.29 1018.57 1018.85 1019.05 1019.29 1019.49 1019.85 1020.21
1013.65 1013.69 1013.73 1013.77 1013.85 1013.93 1014.01 1014.05 1014.09 1014.17 1014.25 1014.33 1014.37 1014.49 1014.61 1014.77 1014.93 1015.05 1015.17 1015.37 1015.53 1015.77 1015.97 1016.13 1016.33 1016.49 1016.65 1016.77 1016.93 1017.09 1017.37 1017.65 1017.85 1018.09 1018.33 1018.53 1018.81 1018.97 1019.17 1019.33 1019.65 1020.25
1013.41 1013.45 1013.49 1013.57 1013.65 1013.69 1013.77 1013.77 1013.81 1013.89 1014.01 1014.09 1014.21 1014.37 1014.53 1014.73 1014.93 1015.05 1015.17 1015.29 1015.49 1015.57 1015.69 1015.89 1016.09 1016.25 1016.41 1016.57 1016.73 1016.89 1017.17 1017.45 1017.77 1017.97 1018.25 1018.65 1018.93 1019.25 1019.37 1019.49 1019.73 1020.17
1013.41 1013.49 1013.57 1013.69 1013.81 1013.89 1013.93 1014.01 1014.05 1014.09 1014.13 1014.21 1014.33 1014.49 1014.69 1014.93 1015.21 1015.41 1015.57 1015.73 1015.73 1015.69 1015.73 1015.77 1015.89 1015.97 1016.17 1016.29 1016.49 1016.69 1016.93 1017.25 1017.49 1017.81 1018.33 1018.81 1019.05 1019.25 1019.49 1019.65 1019.97 1020.41
1013.73 1013.81 1013.85 1013.89 1013.97 1014.09 1014.17 1014.21 1014.29 1014.33 1014.41 1014.41 1014.45 1014.49 1014.65 1014.77 1015.01 1015.29 1015.57 1015.81 1015.85 1015.81 1015.81 1015.81 1015.81 1015.85 1015.97 1016.05 1016.17 1016.37 1016.81 1017.25 1017.41 1017.53 1017.89 1018.49 1018.97 1019.21 1019.41 1019.73 1020.09 1020.53
1013.89 1013.93 1013.97 1014.05 1014.09 1014.17 1014.29 1014.33 1014.29 1014.33 1014.37 1014.41 1014.49 1014.53 1014.57 1014.69 1014.81 1014.93 1015.13 1015.41 1015.61 1015.73 1015.81 1015.81 1015.81 1015.81 1015.89 1015.97 1016.05 1016.29 1016.57 1016.73 1017.01 1017.25 1017.69 1018.21 1018.57 1019.09 1019.45 1019.65 1019.85 1020.41
1013.97 1014.09 1014.17 1014.25 1014.37 1014.45 1014.53 1014.53 1014.45 1014.41 1014.41 1014.37 1014.45 1014.57 1014.61 1014.65 1014.69 1014.77 1014.97 1015.21 1015.37 1015.53 1015.61 1015.69 1015.69 1015.73 1015.81 1015.93 1016.05 1016.21 1016.41 1016.77 1017.01 1017.17 1017.45 1017.73 1018.09 1018.53 1018.89 1019.17 1019.65 1019.85
1014.17 1014.29 1014.41 1014.49 1014.53 1014.57 1014.65 1014.69 1014.65 1014.61 1014.61 1014.61 1014.61 1014.53 1014.57 1014.65 1014.65 1014.81 1014.89 1015.01 1015.17 1015.33 1015.41 1015.49 1015.57 1015.65 1015.69 1015.73 1015.89 1016.17 1016.41 1016.61 1016.81 1017.09 1017.45 1017.77 1018.13 1018.49 1018.73 1018.97 1019.25 1019.65
1014.37 1014.49 1014.61 1014.65 1014.61 1014.65 1014.69 1014.73 1014.69 1014.73 1014.69 1014.69 1014.73 1014.73 1014.69 1014.73 1014.81 1014.85 1014.97 1015.01 1015.05 1015.21 1015.37 1015.49 1015.61 1015.77 1015.85 1015.97 1016.09 1016.25 1016.45 1016.77 1017.13 1017.33 1017.53 1017.85 1018.17 1018.45 1018.85 1019.13 1019.37 1019.61
1014.29 1014.41 1014.49 1014.53 1014.57 1014.61 1014.65 1014.65 1014.65 1014.69 1014.73 1014.81 1014.89 1014.89 1014.89 1014.93 1014.93 1014.97 1015.05 1015.17 1015.17 1015.21 1015.25 1015.41 1015.65 1015.89 1016.05 1016.21 1016.41 1016.57 1016.77 1017.01 1017.25 1017.49 1017.69 1017.93 1018.21 1018.41 1018.65 1018.93 1019.17 1019.45
1014.17 1014.25 1014.33 1014.41 1014.53 1014.57 1014.61 1014.65 1014.73 1014.81 1014.93 1015.05 1015.13 1015.17 1015.21 1015.25 1015.29 1015.29 1015.33 1015.41 1015.53 1015.57 1015.61 1015.69 1015.77 1015.81 1015.97 1016.13 1016.41 1016.69 1016.85 1016.97 1017.25 1017.45 1017.45 1017.77 1018.25 1018.57 1018.81 1019.05 1019.33 1019.53
1014.09 1014.21 1014.41 1014.57 1014.69 1014.69 1014.77 1014.89 1014.97 1015.09 1015.17 1015.25 1015.33 1015.45 1015.49 1015.53 1015.53 1015.53 1015.57 1015.57 1015.61 1015.73 1015.77 1015.81 1015.85 1015.93 1016.01 1016.17 1016.29 1016.45 1016.73 1016.97 1017.29 1017.57 1017.57 1017.73 1018.13 1018.49 1018.85 1019.05 1019.25 1019.45
1014.05 1014.25 1014.49 1014.65 1014.85 1015.01 1015.13 1015.17 1015.25 1015.33 1015.33 1015.37 1015.45 1015.53 1015.57 1015.61 1015.65 1015.65 1015.65 1015.73 1015.73 1015.73 1015.77 1015.85 1015.85 1015.89 1016.01 1016.09 1016.17 1016.37 1016.65 1016.97 1017.13 1017.41 1017.57 1017.89 1018.05 1018.21 1018.57 1018.93 1019.25 1019.41
1013.97 1014.21 1014.41 1014.65 1014.85 1014.97 1015.17 1015.33 1015.37 1015.41 1015.45 1015.49 1015.49 1015.53 1015.69 1015.85 1015.77 1015.77 1015.89 1015.97 1015.97 1016.01 1016.01 1016.01 1016.01 1016.05 1016.17 1016.25 1016.37 1016.49 1016.65 1016.85 1017.09 1017.33 1017.57 1017.77 1017.93 1018.13 1018.41 1018.77 1019.13 1019.53
1013.81 1014.01 1014.25 1014.45 1014.61 1014.81 1015.01 1015.21 1015.29 1015.33 1015.41 1015.45 1015.49 1015.73 1015.85 1015.81 1015.93 1016.05 1016.09 1016.21 1016.25 1016.17 1016.13 1016.21 1016.25 1016.29 1016.29 1016.37 1016.49 1016.61 1016.81 1017.01 1017.21 1017.37 1017.57 1017.65 1017.77 1018.01 1018.33 1018.73 1019.21 1019.65
1013.49 1013.73 1013.89 1014.13 1014.45 1014.65 1014.81 1014.97 1015.09 1015.21 1015.45 1015.65 1015.69 1015.77 1015.77 1015.85 1015.97 1016.01 1016.13 1016.17 1016.25 1016.29 1016.33 1016.49 1016.49 1016.57 1016.57 1016.61 1016.73 1016.81 1016.89 1017.01 1017.21 1017.37 1017.49 1017.57 1017.73 1018.01 1018.33 1018.73 1019.13 1019.49
1013.25 1013.37 1013.53 1013.93 1014.21 1014.41 1014.57 1014.69 1014.85 1015.05 1015.29 1015.45 1015.57 1015.57 1015.65 1015.73 1015.89 1015.93 1016.05 1016.13 1016.21 1016.29 1016.37 1016.45 1016.53 1016.65 1016.73 1016.81 1016.97 1017.05 1017.17 1017.29 1017.49 1017.65 1017.77 1017.85 1018.01 1018.17 1018.37 1018.65 1019.09 1019.41
1013.01 1013.21 1013.41 1013.77 1014.05 1014.25 1014.33 1014.45 1014.61 1014.73 1014.89 1015.25 1015.41 1015.57 1015.69 1015.77 1015.89 1015.97 1016.01 1016.09 1016.21 1016.29 1016.33 1016.29 1016.45 1016.57 1016.69 1016.81 1017.01 1017.21 1017.41 1017.57 1017.69 1017.77 1017.81 1017.93 1018.09 1018.25 1018.45 1018.73 1019.05 1019.37
1012.93 1013.13 1013.41 1013.69 1013.93 1014.09 1014.17 1014.29 1014.41 1014.69 1014.93 1015.09 1015.17 1015.41 1015.53 1015.65 1015.77 1015.93 1016.05 1016.13 1016.21 1016.29 1016.33 1016.37 1016.49 1016.65 1016.73 1016.85 1017.01 1017.21 1017.45 1017.61 1017.73 1017.81 1017.89 1017.93 1018.01 1018.21 1018.49 1018.77 1019.09 1019.37
1012.77 1013.01 1013.25 1013.61 1013.85 1013.93 1014.05 1014.37 1014.65 1014.77 1014.85 1015.01 1014.93 1015.17 1015.37 1015.61 1015.77 1015.89 1015.97 1016.09 1016.25 1016.37 1016.49 1016.57 1016.65 1016.85 1016.97 1017.01 1017.13 1017.21 1017.33 1017.53 1017.69 1017.81 1017.93 1017.97 1018.13 1018.41 1018.69 1018.93 1019.13 1019.33
1012.53 1012.77 1013.01 1013.37 1013.61 1013.77 1014.05 1014.25 1014.53 1014.73 1014.97 1015.13 1015.17 1015.25 1015.41 1015.65 1015.77 1015.85 1016.01 1016.13 1016.25 1016.37 1016.49 1016.61 1016.65 1016.81 1016.97 1017.05 1017.17 1017.25 1017.41 1017.57 1017.65 1017.81 1017.93 1018.05 1018.21 1018.41 1018.69 1018.81 1019.01 1019.17
1012.37 1012.61 1012.85 1013.09 1013.29 1013.61 1014.01 1014.17 1014.53 1014.77 1014.93 1015.09 1015.25 1015.33 1015.45 1015.65 1015.81 1015.93 1016.01 1016.25 1016.45 1016.57 1016.69 1016.81 1016.89 1016.93 1017.05 1017.05 1017.13 1017.25 1017.37 1017.61 1017.73 1017.81 1017.89 1018.13 1018.33 1018.37 1018.57 1018.77 1018.93 1019.05
Wind_Speed
9 8 10 9 9 8 8 9 8 9 9 9 10 9 10 9 9 11 11 11 12 11 11 11 11 11 11 11 10 9 8 10 9 9 10 10 9 10 10 11 9 9
10 8 7 7 7 7 6 6 7 8 8 8 8 8 8 9 10 11 11 11 11 11 10 11 11 11 11 10 11 10 9 8 10 7 10 11 10 10 11 11 10 9
6 6 6 7 8 6 7 6 6 7 8 8 7 7 7 8 9 9 10 10 10 10 10 10 10 11 11 10 10 10 10 10 11 9 10 11 9 9 9 9 7 8
6 6 6 6 6 6 6 6 7 6 5 7 9 7 6 6 7 9 9 10 10 9 10 9 9 8 10 10 10 9 10 10 10 9 9 7 8 8 7 7 6 5
6 6 6 6 6 6 5 6 6 6 6 6 4 6 7 7 7 7 8 8 8 8 8 9 9 8 8 9 9 8 8 7 6 7 8 8 7 7 6 7 6 6
5 6 6 6 6 6 8 7 6 5 5 5 7 6 6 6 6 7 7 8 8 9 8 8 9 8 8 9 9 9 8 7 7 8 7 8 7 7 7 9 9 8
7 6 6 5 5 5 6 6 6 6 5 4 4 5 4 5 5 6 6 7 8 8 8 9 9 9 8 9 9 9 9 8 8 9 9 6 7 5 4 5 6 8
5 4 4 3 3 4 4 4 3 2 2 1 3 2 3 3 3 3 4 5 6 7 7 8 9 10 8 8 9 9 9 8 9 10 8 6 6 7 6 7 7 8
2 3 2 3 3 4 4 4 4 4 2 2 3 3 3 4 5 6 5 5 5 6 7 8 8 8 8 9 9 10 9 7 7 9 11 11 10 9 9 8 8 8
2 2 2 3 4 4 4 4 4 4 4 4 4 4 4 4 4 5 6 8 9 8 8 8 8 7 7 8 9 8 9 12 12 11 10 10 10 9 8 9 10 10
2 1 1 2 3 3 4 4 4 4 4 5 4 5 5 6 6 5 6 6 7 8 8 7 8 7 7 7 6 7 10 9 8 9 11 12 12 12 12 12 11 12
2 2 3 3 2 3 4 4 4 3 4 3 4 5 5 5 5 5 5 6 6 7 7 7 7 7 8 9 9 8 7 8 9 9 9 8 8 9 11 10 11 10
3 3 3 4 4 4 3 4 4 4 3 4 3 4 4 4 4 4 4 5 6 5 5 6 6 5 5 5 5 6 7 7 7 7 8 7 7 7 6 6 7 8
4 4 4 5 4 5 6 5 5 4 4 3 2 3 4 4 4 5 5 4 4 5 5 4 4 4 4 4 4 5 6 6 6 7 7 7 7 8 10 10 9 9
4 3 4 3 3 2 3 3 3 3 2 1 1 2 2 2 1 2 2 2 0 1 2 2 4 5 5 6 7 6 6 7 8 9 10 9 7 6 6 6 6 6
4 3 3 2 1 2 2 1 1 0 0 0 1 0 0 0 1 1 2 3 3 2 3 4 5 5 7 9 8 7 7 7 6 5 6 7 8 7 6 6 7 7
4 3 2 1 0 0 0 0 0 1 0 0 0 0 1 1 1 2 3 3 4 4 4 4 4 5 9 11 12 12 8 7 8 7 6 6 8 9 9 8 6 6
4 3 2 1 1 1 1 1 1 1 0 0 0 0 0 0 1 2 2 2 3 3 4 4 4 5 9 10 10 11 10 7 6 8 8 7 8 8 8 8 7 7
5 4 3 3 2 2 2 2 2 1 1 1 0 0 1 1 1 1 1 1 2 3 4 4 3 5 9 10 10 11 10 8 5 6 7 8 8 8 8 8 7 7
6 6 5 5 4 4 4 3 2 2 1 1 1 1 1 1 1 1 1 2 2 3 3 2 3 3 8 9 9 11 11 9 6 7 6 7 7 8 7 8 9 9
7 6 6 6 5 5 5 5 4 3 2 2 3 3 2 2 2 2 1 1 2 1 1 2 2 3 7 8 8 9 9 7 3 3 3 4 5 6 7 8 8 8
7 6 6 6 6 5 5 5 4 5 4 3 3 2 2 2 1 2 2 2 1 2 2 4 2 5 7 7 8 7 7 4 3 4 5 5 5 6 6 6 7 8
6 6 5 5 6 5 4 4 4 4 3 3 3 3 2 2 2 1 1 2 2 2 3 4 2 4 7 8 8 9 7 3 4 3 4 6 6 5 5 6 6 7
7 6 6 5 5 5 4 3 3 3 3 3 4 4 3 2 2 2 1 2 2 2 1 2 1 1 5 6 8 9 8 5 3 3 4 4 4 3 3 4 5 10
7 7 6 6 5 5 5 5 4 4 3 3 2 3 2 2 2 2 1 1 2 2 2 2 2 2 6 7 8 9 8 5 4 4 5 4 3 4 4 6 5 8
5 6 6 7 6 5 4 4 3 4 3 3 3 3 3 2 2 2 1 0 0 0 1 1 2 1 3 8 9 10 11 6 3 4 6 5 4 5 6 4 6 6
Wind_Direction
212 210 217 217 219 212 202 202 203 202 204 200 202 201 201 198 190 200 207 209 213 216 212 210 206 209 209 206 205 201 200 198 194 190 194 193 197 195 201 202 197 192
215 211 211 215 222 219 218 206 205 206 208 203 198 191 197 187 195 196 202 208 211 216 214 211 207 208 206 205 203 204 202 199 198 190 193 196 197 195 201 197 193 189
214 215 211 211 213 216 217 218 212 212 208 209 203 199 197 192 188 193 195 201 209 215 216 212 207 204 204 205 202 202 203 200 202 194 193 197 194 197 197 188 184 185
219 213 213 216 214 217 216 217 225 224 215 210 213 208 199 191 189 190 195 195 204 210 213 214 211 199 197 196 195 199 199 200 197 183 188 186 188 184 181 178 164 157
219 223 219 219 220 219 217 222 227 228 228 228 220 204 198 194 194 192 192 196 200 207 206 209 209 204 195 193 190 193 192 192 188 181 180 179 176 173 172 158 156 148
218 211 214 214 213 211 216 221 225 225 227 224 212 196 197 189 189 194 192 194 199 204 207 208 209 208 201 199 197 199 194 190 184 180 182 181 181 180 172 168 159 151
211 213 221 218 224 222 220 222 221 220 223 208 188 204 189 192 192 194 194 199 200 203 204 206 207 207 201 197 197 196 190 180 171 173 171 166 151 146 146 145 150 149
225 231 233 247 256 270 263 265 264 258 242 230 195 222 185 188 195 196 199 207 214 212 212 211 209 205 196 192 193 190 187 177 171 164 156 156 155 157 160 156 149 147
255 253 260 268 282 290 289 281 281 280 277 224 223 202 198 198 191 189 199 215 228 225 220 217 211 205 196 194 192 182 173 173 173 169 165 167 173 173 169 156 148 147
269 260 237 247 251 262 267 272 270 258 242 233 228 218 207 214 209 205 203 208 216 219 218 215 212 206 198 200 194 185 181 180 177 170 166 170 169 166 165 166 168 163
267 289 264 260 252 266 270 276 269 258 242 230 229 233 224 215 216 205 209 210 213 213 213 213 210 199 194 196 191 181 180 176 174 170 172 176 179 177 175 173 173 178
272 298 297 294 282 278 271 278 281 271 264 260 234 229 221 215 212 215 206 209 210 213 210 211 206 199 196 193 186 182 184 181 179 177 176 172 171 175 177 177 174 168
219 223 234 244 244 252 274 278 270 256 245 251 239 227 222 222 222 218 218 211 215 210 209 205 200 199 202 197 185 177 172 170 173 170 166 165 163 158 161 170 172 165
207 206 212 216 220 219 221 225 235 241 242 244 229 233 227 220 219 216 227 218 224 209 204 189 183 186 190 185 182 172 167 172 174 167 159 158 162 167 170 177 177 178
200 201 201 203 210 222 229 236 237 240 252 257 245 263 268 268 261 232 208 214 179 168 153 152 174 190 184 174 162 169 176 175 175 176 168 159 161 163 169 171 172 175
191 175 172 180 188 218 240 261 301 356 27 1 318 293 289 141 152 145 171 183 172 160 164 172 188 190 186 178 181 175 172 167 161 168 162 158 159 159 164 174 176 173
160 150 131 160 250 20 41 46 36 45 52 64 47 54 179 188 149 165 191 188 187 185 189 200 201 198 185 182 181 174 166 165 168 169 162 161 167 166 174 176 176 168
149 139 141 140 101 84 76 74 85 80 64 82 130 202 335 80 189 217 207 202 195 197 200 210 214 197 181 188 185 178 172 169 166 166 168 172 173 177 176 171 165 157
150 150 151 150 146 135 131 110 112 124 128 126 115 72 115 153 252 169 216 226 199 207 223 226 230 195 186 187 182 174 167 157 163 170 175 183 179 178 174 170 161 159
160 156 164 164 149 140 133 131 132 141 147 143 128 113 138 162 179 202 188 199 210 225 246 269 245 221 199 190 182 178 177 173 180 183 184 180 181 177 174 171 170 170
167 166 165 158 152 146 142 145 145 137 142 149 150 160 162 179 190 198 208 196 210 201 198 223 247 194 205 200 197 192 186 171 156 156 168 179 182 180 177 174 175 176
169 168 163 154 152 151 151 156 157 161 161 158 148 153 149 144 159 169 191 196 181 162 175 216 209 177 193 194 189 189 178 164 167 177 182 183 186 183 176 174 175 178
167 162 162 157 156 154 164 169 169 162 158 150 147 152 153 159 169 146 154 173 186 188 202 229 218 192 191 190 189 186 173 185 183 189 190 191 198 186 177 173 178 181
160 160 161 160 158 169 174 171 156 159 169 163 163 161 170 170 144 133 115 137 162 204 221 255 270 176 210 207 198 192 184 187 189 194 210 203 187 157 161 175 184 186
161 162 161 160 165 175 171 168 175 170 151 150 148 143 155 144 141 148 135 134 155 177 193 222 255 165 188 205 202 202 194 195 188 193 203 208 172 173 174 180 191 191
157 160 161 163 170 164 166 168 148 138 151 150 144 137 135 123 129 136 163 184 120 153 264 263 285 264 199 210 210 209 203 197 194 188 209 199 185 184 187 206 201 198